Weather History for Port Heiden, AK

Change the Weather History Date:

Saturday, June 15, 2013

  Actual Average Record
Temperature  
Mean Temperature 58 °F -  
Max Temperature 69 °F 52 °F 71 °F (2002)
Min Temperature 46 °F 40 °F 23 °F (2007)
Degree Days  
Heating Degree Days 8    
Growing Degree Days 8 (Base 50)    
Moisture  
Dew Point 42 °F    
Average Humidity 55    
Maximum Humidity 82    
Minimum Humidity 29    
Precipitation  
Precipitation 0.00 in - - ()
Sea Level Pressure  
Sea Level Pressure 30.19 in    
Wind  
Wind Speed 12 mph (SSE)    
Max Wind Speed 31 mph    
Max Gust Speed 37 mph    
Visibility 10 miles    
Events      
Averages and records for this station are not official NWS values.
T = Trace of Precipitation, MM = Missing Value Source: NWS Daily Summary

Daily Weather History Graph

Daily Weather History Graph

Search for Another Location

Airport:

Trip Planner

Search our weather history database for the weather conditions in past years. The results will help you decide how hot, cold, wet, or windy it might be!

Date:

Astronomy

Jun. 15, 2013 Rise Set
Actual Time 5:39 AM AKDT 11:30 PM AKDT
Civil Twilight 4:32 AM AKDT 12:38 AM AKDT
Nautical Twilight 3:07 AM AKDT 2:02 AM AKDT
Astronomical Twilight Sun does not rise Sun does not rise
Moon 1:46 PM AKDT (6/15) 1:57 AM AKDT (6/15)
Length of Visible Light 20h 05m
Length of Day
17h 50m
Waxing Crescent, 41% of the Moon is Illuminated
Jun 15
Waxing Crescent
Jun 16
First Quarter
Jun 23
Full
Jun 29
Last Quarter
Jul 7
New

Hourly Weather History & Observations

Time (AKDT) Temp. Windchill Dew Point Humidity Pressure Visibility Wind Dir Wind Speed Gust Speed Precip Events Conditions
12:16 AM 50.0 °F - 39.2 °F 66% 30.24 in 10.0 mi WNW 4.6 mph - N/A   Clear
12:36 AM 48.2 °F - 39.2 °F 71% 30.24 in 10.0 mi Calm Calm - N/A   Clear
12:56 AM 51.8 °F - 39.2 °F 62% 30.23 in 10.0 mi Calm Calm - N/A   Clear
1:16 AM 46.4 °F 45.2 °F 39.2 °F 76% 30.23 in 10.0 mi ESE 3.5 mph - N/A   Clear
1:36 AM 48.2 °F - 41.0 °F 76% 30.23 in 10.0 mi Calm Calm - N/A   Clear
1:56 AM 48.2 °F - 42.8 °F 82% 30.22 in 10.0 mi SE 4.6 mph - N/A   Clear
2:16 AM 50.0 °F - 39.2 °F 66% 30.21 in 10.0 mi SE 5.8 mph - N/A   Clear
2:36 AM 48.2 °F - 39.2 °F 71% 30.21 in 10.0 mi Calm Calm - N/A   Clear
2:56 AM 48.2 °F - 39.2 °F 71% 30.21 in 10.0 mi Calm Calm - N/A   Clear
3:16 AM 50.0 °F - 41.0 °F 71% 30.21 in 10.0 mi ESE 4.6 mph - N/A   Clear
3:36 AM 51.8 °F - 39.2 °F 62% 30.20 in 10.0 mi East 3.5 mph - N/A   Clear
3:56 AM 46.4 °F - 37.4 °F 71% 30.20 in 10.0 mi Calm Calm - N/A   Clear
4:16 AM 51.8 °F - 39.2 °F 62% 30.20 in 10.0 mi WSW 4.6 mph - N/A   Clear
4:36 AM 51.8 °F - 39.2 °F 62% 30.20 in 10.0 mi Calm Calm - N/A   Clear
4:56 AM 53.6 °F - 39.2 °F 58% 30.19 in 10.0 mi Calm Calm - N/A   Clear
5:16 AM 51.8 °F - 37.4 °F 58% 30.19 in 10.0 mi Calm Calm - N/A   Clear
5:36 AM 51.8 °F - 37.4 °F 58% 30.19 in 10.0 mi SW 3.5 mph - N/A   Clear
5:56 AM 50.0 °F - 37.4 °F 62% 30.19 in 10.0 mi SSW 3.5 mph - N/A   Clear
6:16 AM 46.4 °F 42.9 °F 37.4 °F 71% 30.19 in 10.0 mi SE 6.9 mph - N/A   Clear
6:36 AM 48.2 °F - 37.4 °F 66% 30.19 in 10.0 mi SSE 9.2 mph - N/A   Clear
6:56 AM 51.8 °F - 39.2 °F 62% 30.19 in 10.0 mi SSE 11.5 mph - N/A   Clear
7:16 AM 53.6 °F - 39.2 °F 58% 30.18 in 10.0 mi SSE 15.0 mph - N/A   Clear
7:36 AM 55.4 °F - 39.2 °F 54% 30.18 in 10.0 mi SSE 16.1 mph - N/A   Clear
7:56 AM 57.2 °F - 39.2 °F 51% 30.18 in 10.0 mi SSE 16.1 mph - N/A   Clear
8:16 AM 59.0 °F - 39.2 °F 48% 30.18 in 10.0 mi SSE 16.1 mph - N/A   Clear
8:36 AM 59.0 °F - 39.2 °F 48% 30.19 in 10.0 mi SSE 15.0 mph - N/A   Clear
8:56 AM 60.8 °F - 39.2 °F 45% 30.19 in 10.0 mi SE 13.8 mph - N/A   Clear
9:16 AM 62.6 °F - 39.2 °F 42% 30.18 in 10.0 mi SSE 18.4 mph - N/A   Clear
9:36 AM 64.4 °F - 41.0 °F 42% 30.19 in 10.0 mi SSE 18.4 mph - N/A   Clear
9:56 AM 64.4 °F - 42.8 °F 45% 30.18 in 10.0 mi SSE 19.6 mph 25.3 mph N/A   Clear
10:16 AM 64.4 °F - 42.8 °F 45% 30.18 in 10.0 mi SE 19.6 mph 25.3 mph N/A   Clear
10:36 AM 64.4 °F - 42.8 °F 45% 30.17 in 10.0 mi SSE 18.4 mph - N/A   Clear
10:56 AM 62.6 °F - 42.8 °F 48% 30.18 in 10.0 mi South 23.0 mph - N/A   Clear
11:16 AM 64.4 °F - 42.8 °F 45% 30.17 in 10.0 mi South 23.0 mph 26.5 mph N/A   Clear
11:36 AM 64.4 °F - 44.6 °F 49% 30.17 in 10.0 mi South 24.2 mph - N/A   Clear
11:56 AM 66.2 °F - 44.6 °F 46% 30.17 in 10.0 mi SSE 23.0 mph 32.2 mph N/A   Clear
12:16 PM 66.2 °F - 44.6 °F 46% 30.17 in 10.0 mi SSE 23.0 mph 29.9 mph N/A   Clear
12:36 PM 66.2 °F - 44.6 °F 46% 30.17 in 10.0 mi SSE 24.2 mph 32.2 mph N/A   Clear
12:56 PM 68.0 °F - 44.6 °F 43% 30.18 in 10.0 mi SSE 26.5 mph 33.4 mph N/A   Clear
1:16 PM 66.2 °F - 44.6 °F 46% 30.18 in 10.0 mi SSE 27.6 mph - N/A   Clear
1:36 PM 68.0 °F - 44.6 °F 43% 30.18 in 10.0 mi SSE 29.9 mph 33.4 mph N/A   Partly Cloudy
1:56 PM - - - N/A% 30.18 in 10.0 mi SSE 28.8 mph 34.5 mph N/A   Clear
2:16 PM - - - N/A% 30.17 in 10.0 mi SSE 27.6 mph 35.7 mph N/A   Clear
2:36 PM - - - N/A% 30.18 in 10.0 mi SSE 29.9 mph 36.8 mph N/A   Clear
2:56 PM 68.0 °F - 44.6 °F 43% 30.18 in 10.0 mi SSE 25.3 mph 33.4 mph N/A   Clear
3:16 PM - - - N/A% 30.18 in 10.0 mi SSE 25.3 mph 33.4 mph N/A   Clear
3:36 PM 69.8 °F - 44.6 °F 40% 30.18 in 10.0 mi SE 26.5 mph 33.4 mph N/A   Clear
3:56 PM 69.8 °F - 44.6 °F 40% 30.17 in 10.0 mi SSE 26.5 mph 33.4 mph N/A   Clear
4:16 PM 69.8 °F - 44.6 °F 40% 30.17 in 10.0 mi SE 31.1 mph 36.8 mph N/A   Clear
4:36 PM - - - N/A% 30.16 in 10.0 mi SE 29.9 mph 34.5 mph N/A   Clear
4:56 PM - - - N/A% 30.16 in 10.0 mi SSE 26.5 mph 33.4 mph N/A   Clear
5:16 PM 66.2 °F - 44.6 °F 46% 30.17 in 10.0 mi SE 23.0 mph 35.7 mph N/A   Clear
5:36 PM - - - N/A% 30.16 in 10.0 mi SSE 31.1 mph 36.8 mph N/A   Clear
5:56 PM 66.2 °F - 44.6 °F 46% 30.17 in 10.0 mi SE 27.6 mph 34.5 mph N/A   Clear
6:16 PM - - - N/A% 30.17 in 10.0 mi SSE 25.3 mph - N/A   Clear
6:36 PM - - - N/A% 30.17 in 10.0 mi SSE 27.6 mph 33.4 mph N/A   Clear
6:56 PM - - - N/A% 30.17 in 10.0 mi SSE 25.3 mph 32.2 mph N/A   Clear
7:16 PM 66.2 °F - 44.6 °F 46% 30.17 in 10.0 mi SSE 29.9 mph 34.5 mph N/A   Clear
7:36 PM 64.4 °F - 44.6 °F 49% 30.17 in 10.0 mi SSE 24.2 mph 32.2 mph N/A   Clear
7:56 PM 64.4 °F - 44.6 °F 49% 30.17 in 10.0 mi SSE 25.3 mph 31.1 mph N/A   Clear
8:16 PM 64.4 °F - 44.6 °F 49% 30.17 in 10.0 mi SSE 26.5 mph 31.1 mph N/A   Clear
8:36 PM 62.6 °F - 44.6 °F 52% 30.18 in 10.0 mi SSE 21.9 mph 31.1 mph N/A   Clear
8:56 PM 62.6 °F - 44.6 °F 52% 30.18 in 10.0 mi SSE 23.0 mph 28.8 mph N/A   Clear
9:16 PM 62.6 °F - 44.6 °F 52% 30.19 in 10.0 mi SSE 23.0 mph 33.4 mph N/A   Clear
9:36 PM 60.8 °F - 44.6 °F 55% 30.19 in 10.0 mi SSE 23.0 mph 32.2 mph N/A   Clear
9:56 PM 59.0 °F - 44.6 °F 59% 30.19 in 10.0 mi SSE 25.3 mph 29.9 mph N/A   Clear
10:16 PM 57.2 °F - 44.6 °F 63% 30.20 in 10.0 mi SSE 20.7 mph 29.9 mph N/A   Clear
10:36 PM 57.2 °F - 42.8 °F 59% 30.20 in 10.0 mi SSE 25.3 mph - N/A   Clear
10:56 PM 57.2 °F - 42.8 °F 59% 30.20 in 10.0 mi SE 20.7 mph 31.1 mph N/A   Clear
11:16 PM 55.4 °F - 42.8 °F 63% 30.20 in 10.0 mi SE 20.7 mph 25.3 mph N/A   Clear
11:36 PM 55.4 °F - 42.8 °F 63% 30.21 in 10.0 mi SE 16.1 mph - N/A   Clear
11:56 PM 55.4 °F - 42.8 °F 63% 30.21 in 10.0 mi SE 18.4 mph 24.2 mph N/A   Clear